Date String (YYYY-MM-DD hh:mm:ss) UTC,Instrument flags,absolute air pressure of the measurement (hPa),sample flow rate (lpm),inlet stack bypass flow (lpm),air temperature of the measurement (°C),ambient temperature measured by the external sensor (°C),aerosol sample conditioner tube jacket temperature (°C),OPC LED temperature (°C),internal box temperature (°C),relative humidity of the measurement (%),span deviation,mass concentration of particles derived from Lorenz-Mie calculation of OPC scattering (μg/m³),mass concentration of particles derived from Lorenz-Mie calculation of OPC scattering (μg/m³),mass concentration of particles derived from Lorenz-Mie calculation of OPC scattering (μg/m³)
DateTimeUTC,F1_M11,P_M11,Q1_M11,Q2_M11,T1_M11,T2_M11,T3_M11,T4_M11,T5_M11,U1_M11,ZSPAN_M11,X2_M11,X0_M11,X1_M11
2024-01-07 14:00:00,SystemResetWarning,0816.1,5.00,000.00,018.7,017.9,000.0,027.2,020.0,8.5,0000.0,0001.69,0004.76,0001.39
2024-01-07 14:01:00,SystemResetWarning,0816.1,5.00,000.00,018.7,017.9,000.0,027.2,020.0,8.6,0000.0,0001.67,0004.80,0001.38
2024-01-07 14:02:00,SystemResetWarning,0816.1,5.00,000.00,018.7,017.9,000.0,027.2,020.0,8.6,0000.0,0001.67,0004.64,0001.37
2024-01-07 14:03:00,SystemResetWarning,0816.1,5.01,000.00,018.7,017.9,000.0,027.2,020.0,8.6,0000.0,0001.66,0004.01,0001.36
2024-01-07 14:04:00,SystemResetWarning,0816.1,5.01,000.00,018.7,017.9,000.0,027.2,020.0,8.6,0000.0,0001.71,0004.12,0001.37
2024-01-07 14:05:00,SystemResetWarning,0816.1,4.99,000.00,018.7,017.9,000.0,027.2,020.0,8.7,0000.0,0001.77,0004.24,0001.42
2024-01-07 14:06:00,SystemResetWarning,0816.1,5.00,000.00,018.7,017.9,000.0,027.2,020.0,8.7,0000.0,0001.85,0004.54,0001.51
2024-01-07 14:07:00,SystemResetWarning,0816.1,4.99,000.00,018.7,017.9,000.0,027.2,020.0,8.7,0000.0,0002.00,0004.75,0001.63
2024-01-07 14:08:00,SystemResetWarning,0816.1,5.00,000.00,018.7,017.9,000.0,027.2,020.0,8.7,0000.0,0002.18,0005.02,0001.76
2024-01-07 14:09:00,SystemResetWarning,0816.1,5.00,000.00,018.7,017.9,000.0,027.2,020.0,8.7,0000.0,0002.43,0004.16,0001.91
2024-01-07 14:10:00,SystemResetWarning,0816.1,5.00,000.00,018.7,017.9,000.0,027.2,020.0,8.7,0000.0,0002.68,0004.56,0002.06
2024-01-07 14:11:00,SystemResetWarning,0816.0,5.00,000.00,018.7,017.9,000.0,027.2,020.0,8.7,0000.0,0002.86,0004.78,0002.21
2024-01-07 14:12:00,SystemResetWarning,0816.1,5.01,000.00,018.7,018.1,000.0,027.1,020.3,8.7,0000.0,0003.05,0005.40,0002.33
2024-01-07 14:13:00,SystemResetWarning,0816.1,5.01,000.00,018.8,018.7,000.0,027.2,020.7,8.6,0000.0,0003.16,0005.81,0002.44
2024-01-07 14:14:00,SystemResetWarning,0816.1,4.98,000.00,019.0,019.0,000.0,027.2,020.6,8.5,0000.0,0003.24,0006.10,0002.54
2024-01-07 14:15:00,SystemResetWarning,0816.1,4.99,000.00,019.0,018.8,000.0,027.2,020.3,8.5,0000.0,0003.32,0006.92,0002.63
2024-01-07 14:16:00,SystemResetWarning,0816.1,5.01,000.00,018.9,018.7,000.0,027.2,020.1,8.5,0000.0,0003.38,0008.14,0002.69
2024-01-07 14:17:00,SystemResetWarning,0816.1,5.01,000.00,018.9,018.6,000.0,027.2,020.1,8.5,0000.0,0003.40,0008.02,0002.71
2024-01-07 14:18:00,SystemResetWarning,0816.1,4.99,000.00,018.9,018.5,000.0,027.2,020.0,8.5,0000.0,0003.41,0008.02,0002.69
2024-01-07 14:19:00,SystemResetWarning,0816.1,4.99,000.00,018.8,018.4,000.0,027.2,020.0,8.6,0000.0,0003.38,0008.03,0002.64
2024-01-07 14:20:00,SystemResetWarning,0816.1,4.99,000.00,018.8,018.3,000.0,027.2,020.0,8.6,0000.0,0003.33,0007.98,0002.58
2024-01-07 14:21:00,SystemResetWarning,0816.0,5.00,000.00,018.8,018.2,000.0,027.2,020.0,8.6,0000.0,0003.26,0007.87,0002.50
2024-01-07 14:22:00,SystemResetWarning,0816.1,5.00,000.00,018.8,018.2,000.0,027.2,020.0,8.6,0000.0,0003.22,0007.82,0002.42
2024-01-07 14:23:00,SystemResetWarning,0816.0,5.00,000.00,018.8,018.1,000.0,027.2,020.0,8.6,0000.0,0003.19,0007.64,0002.34
2024-01-07 14:24:00,SystemResetWarning,0816.0,5.00,000.00,018.8,018.1,000.0,027.2,020.0,8.7,0000.0,0003.14,0007.45,0002.27
2024-01-07 14:25:00,SystemResetWarning,0816.0,5.00,000.00,018.8,018.0,000.0,027.2,020.0,8.7,0000.0,0003.11,0007.47,0002.21
2024-01-07 14:26:00,SystemResetWarning,0815.9,5.00,000.00,018.8,018.0,000.0,027.2,020.0,8.7,0000.0,0003.05,0007.90,0002.15
2024-01-07 14:27:00,SystemResetWarning,0815.9,5.00,000.00,018.8,018.0,000.0,027.2,020.0,8.7,0000.0,0002.94,0006.25,0002.09
2024-01-07 14:28:00,SystemResetWarning,0815.9,5.00,000.00,018.8,018.0,000.0,027.2,020.0,8.7,0000.0,0002.87,0006.12,0002.03
2024-01-07 14:29:00,SystemResetWarning,0815.8,5.00,000.00,018.8,018.0,000.0,027.2,020.0,8.7,0000.0,0002.80,0006.10,0002.01
2024-01-07 14:30:00,SystemResetWarning,0815.9,5.00,000.00,018.8,018.0,000.0,027.2,020.0,8.8,0000.0,0002.86,0006.27,0001.99
2024-01-07 14:31:00,SystemResetWarning,0815.9,5.00,000.00,018.8,017.9,000.0,027.2,020.0,8.8,0000.0,0002.87,0006.04,0002.01
2024-01-07 14:32:00,SystemResetWarning,0815.8,5.00,000.00,018.7,017.9,000.0,027.2,020.0,8.8,0000.0,0002.93,0006.17,0002.05
2024-01-07 14:33:00,SystemResetWarning,0815.9,5.01,000.00,018.7,017.9,000.0,027.2,020.0,8.8,0000.0,0003.00,0006.38,0002.11
2024-01-07 14:34:00,SystemResetWarning,0815.9,4.99,000.00,018.7,017.9,000.0,027.2,020.0,8.8,0000.0,0003.02,0006.29,0002.17
2024-01-07 14:35:00,SystemResetWarning,0815.9,4.99,000.00,018.7,017.9,000.0,027.2,020.0,8.8,0000.0,0003.12,0007.14,0002.23
2024-01-07 14:36:00,SystemResetWarning,0815.9,5.00,000.00,018.7,017.9,000.0,027.2,020.0,8.9,0000.0,0003.21,0007.82,0002.31
2024-01-07 14:37:00,SystemResetWarning,0815.8,4.99,000.00,018.7,017.9,000.0,027.2,020.0,8.9,0000.0,0003.24,0007.09,0002.38
2024-01-07 14:38:00,SystemResetWarning,0815.8,4.99,000.00,018.7,017.9,000.0,027.2,020.0,8.9,0000.0,0003.34,0007.35,0002.46
2024-01-07 14:39:00,SystemResetWarning,0815.8,5.00,000.00,018.7,017.9,000.0,027.2,020.0,8.9,0000.0,0003.46,0007.76,0002.57
2024-01-07 14:40:00,SystemResetWarning,0815.8,5.01,000.00,018.7,017.9,000.0,027.2,020.0,9.0,0000.0,0003.55,0008.27,0002.68
2024-01-07 14:41:00,SystemResetWarning,0815.8,5.01,000.00,018.7,017.9,000.0,027.2,020.0,9.0,0000.0,0003.60,0008.86,0002.77
2024-01-07 14:42:00,SystemResetWarning,0815.8,4.99,000.00,018.7,017.9,000.0,027.2,020.0,9.0,0000.0,0003.66,0008.95,0002.82
2024-01-07 14:43:00,SystemResetWarning,0815.8,5.00,000.00,018.7,017.9,000.0,027.2,020.0,9.1,0000.0,0003.69,0009.00,0002.88
2024-01-07 14:44:00,SystemResetWarning,0815.8,5.00,000.00,018.7,017.8,000.0,027.2,020.0,9.1,0000.0,0003.73,0008.96,0002.92
2024-01-07 14:45:00,SystemResetWarning,0815.8,5.02,000.00,018.7,017.8,000.0,027.2,020.0,9.2,0000.0,0003.75,0009.10,0002.96
2024-01-07 14:46:00,SystemResetWarning,0815.8,5.00,000.00,018.7,017.8,000.0,027.2,020.0,9.2,0000.0,0003.78,0009.04,0003.00
2024-01-07 14:47:00,SystemResetWarning,0815.8,4.99,000.00,018.7,017.8,000.0,027.2,020.0,9.2,0000.0,0003.77,0008.49,0003.03
2024-01-07 14:48:00,SystemResetWarning,0815.8,4.99,000.00,018.7,017.8,000.0,027.2,020.0,9.2,0000.0,0003.80,0008.60,0003.07
2024-01-07 14:49:00,SystemResetWarning,0815.8,5.00,000.00,018.7,017.7,000.0,027.2,020.1,9.3,0000.0,0003.78,0008.54,0003.10
2024-01-07 14:50:00,SystemResetWarning,0815.8,5.02,000.00,018.8,018.1,000.0,027.2,020.4,9.3,0000.0,0003.74,0008.34,0003.09
2024-01-07 14:51:00,SystemResetWarning,0815.9,5.00,000.00,018.9,018.8,000.0,027.2,020.8,9.2,0000.0,0003.74,0008.32,0003.09
2024-01-07 14:52:00,SystemResetWarning,0815.9,4.99,000.00,019.0,018.9,000.0,027.2,020.6,9.2,0000.0,0003.75,0007.65,0003.09
2024-01-07 14:53:00,SystemResetWarning,0815.9,5.01,000.00,019.0,018.8,000.0,027.2,020.4,9.2,0000.0,0003.75,0007.79,0003.11
2024-01-07 14:54:00,SystemResetWarning,0815.9,5.00,000.00,019.0,018.7,000.0,027.2,020.2,9.2,0000.0,0003.76,0007.97,0003.11
2024-01-07 14:55:00,SystemResetWarning,0815.9,5.00,000.00,018.9,018.6,000.0,027.2,020.2,9.2,0000.0,0003.74,0007.95,0003.12
2024-01-07 14:56:00,SystemResetWarning,0815.9,5.00,000.00,018.9,018.5,000.0,027.2,020.1,9.3,0000.0,0003.77,0007.93,0003.14
2024-01-07 14:57:00,SystemResetWarning,0815.9,5.00,000.00,018.9,018.3,000.0,027.2,020.1,9.4,0000.0,0003.79,0007.87,0003.15
2024-01-07 14:58:00,SystemResetWarning,0815.8,4.99,000.00,018.9,018.2,000.0,027.2,020.0,9.4,0000.0,0003.80,0007.96,0003.17
2024-01-07 14:59:00,SystemResetWarning,0815.9,5.00,000.00,018.8,018.1,000.0,027.2,020.0,9.4,0000.0,0003.82,0008.49,0003.17
